www.pogodaiklimat.ru

Погода и климат >> Архив погоды >> Молдова >> Каменка


ПОГОДА в Каменке

  • Прогноз погоды в Каменке
  • Монитор погоды в Каменке

АРХИВ ПОГОДЫ в Каменке

Время (UTC), дата Ветер
(напр.,м/с)
 
Видим.   Явления Облачность Т
(С)
Тd
(С)
f
(%)
Тe
(С)
Тes
(С)
Комфортность P
(гПа)
Po
(гПа)
Тmin
(С)
Tmax
(С)
R
(мм)
R24
(мм)
S
(см)
03 9.06 З 1 10 км 3/0
[Ac trans]
+16.0 +15.5 97 +17 +17 1021.4 1002.9
06 9.06 СЗ 2 10 км ясно +21.0 +18.4 85 +26 +34 душно 1021.5 1003.4 +15.7
09 9.06 СЗ 1 10 км 4/3 600 м
[Sc Ac trans]
+26.1 +20.5 71 +32 +45 очень
душно
1021.5 1003.6
12 9.06 С 3 10 км 8/5 600 м
[Sc Ac trans Ci fib]
+28.2 +18.4 55 +33 +37 очень
душно
1020.4 1002.7
15 9.06 С 3 10 км {гроза} 8/4 600 м
[Cb cap Ac trans Ci fib]
+25.1 +19.5 71 +30 +32 душно 1020.2 1002.3
18 9.06 С 2 10 км {гроза} 8/4 600 м
[Cb cap Ac trans]
+22.7 +18.1 75 +28 +28 душно 1019.8 1001.8 +28.5
21 9.06 штиль 0 10 км 3/3 600 м
[Sc]
+19.0 +17.7 92 +20 +20 1020.6 1002.3
00 10.06 штиль 0 10 км ясно +17.3 +16.4 94 +17 +17 1020.7 1002.3
03 10.06 штиль 0 10 км 8/0
[Ac trans]
+17.4 +16.5 94 +17 +18 1020.7 1002.3
06 10.06 штиль 0 10 км 3/0
[Ci fib]
+23.8 +19.7 78 +29 +39 душно 1020.2 1002.3 +16.6
09 10.06 СВ 2 10 км 1/0
[Ci fib]
+27.9 +20.3 63 +34 +51 опасность
солнечного
удара
1019.3 1001.6
12 10.06 СВ 4 10 км 4/4 1000 м
[Cu hum]
+29.3 +19.9 57 +36 +42 очень
душно
1018.4 1000.7
15 10.06 СВ 6 10 км гроза, ливневой дождь 8/6 600 м
[Cb cap Ci fib]
+29.2 +18.9 54 +35 +35 очень
душно
1017.1 999.4
18 10.06 С 3 10 км {гроза, ливн. осадки} 3/0
[Ci fib]
+24.3 +19.2 73 +29 +29 душно 1017.0 999.1 +29.6 0.0
21 10.06 С 2 10 км ясно +20.5 +17.7 84 +25 +25 комфорт 1017.1 999.0
00 11.06 В 3 10 км ясно +19.1 +16.1 83 +21 +21 комфорт 1017.4 999.1
03 11.06 СЗ 1 10 км ясно +18.0 +15.6 86 +19 +20 1017.6 999.2
06 11.06 СЗ 1 10 км ясно +22.5 +17.4 73 +27 +36 душно 1016.9 998.9 +17.8
09 11.06 СВ 3 10 км ясно +28.3 +20.4 62 +35 +49 очень
душно
1016.0 998.4
12 11.06 В 1 10 км 3/3 1000 м
[Cu hum]
+30.5 +19.9 53 +37 +49 очень
душно
1015.4 997.9
15 11.06 С 2 10 км в посл. час гроза 10/10 630 м
[Cb cap]
+25.4 +18.5 66 +30 +30 душно 1014.7 996.9
18 11.06 С 2 10 км {гроза} 9/3 600 м
[Sc Ci sp]
+24.4 +19.5 74 +30 +30 очень
душно
1015.1 997.3 +30.8
21 11.06 СВ 3 10 км 8/0
[Ci sp]
+20.9 +17.7 82 +25 +25 комфорт 1015.5 997.4
00 12.06 С 1 10 км ясно +19.3 +17.0 87 +22 +22 комфорт 1015.6 997.4
03 12.06 З 1 10 км ясно +17.0 +16.0 94 +18 +18 1015.7 997.4
06 12.06 С 1 10 км ясно +23.8 +19.7 78 +29 +38 душно 1015.1 997.3 +16.9
09 12.06 СВ 3 10 км 3/0
[Ci fib]
+28.6 +16.0 46 +32 +45 душно 1015.2 997.6
12 12.06 В 3 10 км 3/1 1000 м
[Cu hum Ci fib]
+30.0 +16.6 44 +33 +44 душно 1014.3 996.8
15 12.06 В 1 10 км 3/0
[Ci fib]
+29.9 +17.1 46 +34 +39 очень
душно
1014.4 996.3
18 12.06 С 1 10 км 3/0
[Ci fib]
+25.3 +18.9 68 +30 +30 душно 1014.4 996.3 +30.3
21 12.06 С 1 10 км 3/0
[Ci fib]
+21.2 +17.1 77 +25 +25 комфорт 1015.2 997.1
00 13.06 штиль 0 10 км ясно +18.7 +16.2 85 +20 +20 1015.3 997.1
03 13.06 штиль 0 10 км ясно +17.0 +15.9 93 +17 +17 1015.4 997.1
06 13.06 штиль 0 10 км ясно +21.8 +18.1 80 +27 +37 душно 1015.6 997.7 +16.6
09 13.06 штиль 0 10 км ясно +29.4 +20.4 58 +36 +60 опасность
солнечного
удара
1016.0 998.5
12 13.06 ЮВ 2 10 км 8/3 1000 м
[Cu hum Ac trans Ci fib]
+30.3 +19.3 52 +36 +43 очень
душно
1016.4 998.9
15 13.06 ЮВ 1 10 км гроза без осадков {ливн. осадки} 8/5 300 м
[Cb cap Ci fib]
+22.7 +16.9 70 +27 +30 душно 1018.0 1000.0
18 13.06 СВ 1 10 км {гроза, ливн. осадки} 6/3 300 м
[Sc Ci fib]
+23.3 +17.7 71 +29 +29 душно 1017.3 999.3 +31.0 6
21 13.06 СВ 2 10 км 9/9 570 м
[Sc]
+21.1 +16.7 76 +25 +25 комфорт 1018.2 1000.1
00 14.06 З 2 10 км 10/10 500 м
[Sc]
+20.5 +17.0 80 +24 +24 комфорт 1018.6 1000.5
03 14.06 С 1 10 км 9/9 570 м
[Sc]
+18.9 +17.1 89 +21 +21 комфорт 1018.5 1000.2
06 14.06 С 1 10 км 8/3 300 м
[Sc Ac trans Ci fib]
+22.5 +19.2 82 +28 +33 душно 1019.0 1001.0 +18.7
09 14.06 С 1 10 км 6/0
[Ac trans Ci sp]
+28.1 +20.4 63 +35 +52 опасность
солнечного
удара
1019.0 1001.3
12 14.06 С 2 10 км 8/0
[Ci fib]
+29.5 +19.0 53 +35 +48 очень
душно
1018.8 1001.1
15 14.06 СВ 1 10 км 4/0
[Ac trans Ci fib]
+28.9 +18.7 54 +34 +39 очень
душно
1017.5 999.8
18 14.06 В 1 10 км 5/0
[Ac trans Ci fib]
+28.0 +23.0 74 +37 +37 очень
душно
1017.5 999.8 +30.8
21 14.06 В 1 10 км 5/0
[Ac trans]
+22.9 +19.5 81 +29 +29 очень
душно
1018.5 1000.5
00 15.06 С 1 10 км 3/0
[Ci fib]
+19.9 +19.0 95 +24 +24 комфорт 1018.1 1000.0
03 15.06 штиль 0 10 км 4/0
[Ac trans]
+19.4 +18.4 94 +22 +22 комфорт 1018.0 999.7
06 15.06 штиль 0 10 км ясно +23.7 +21.1 85 +30 +40 очень
душно
1017.4 999.5 +19.1
09 15.06 С 2 10 км 4/4 1000 м
[Cu hum]
+28.2 +19.8 60 +34 +45 очень
душно
1016.0 998.4
12 15.06 С 3 10 км 4/4 1000 м
[Cu hum]
+29.5 +18.0 50 +34 +42 очень
душно
1015.1 997.5
15 15.06 ЮВ 2 10 км 8/0
[Ci sp]
+28.3 +20.0 61 +35 +39 очень
душно
1014.3 996.7
18 15.06 Ю 1 10 км 6/0
[Ci sp]
+26.6 +22.3 77 +35 +35 очень
душно
1013.7 996.0 +30.2
21 15.06 С 1 10 км ясно +22.2 +20.5 90 +29 +29 очень
душно
1013.9 996.0
00 16.06 штиль 0 10 км ясно +19.9 +19.0 95 +23 +23 комфорт 1013.5 995.4

 

Местоположение метеостанции Каменка (Молдова): широта 48.03 долгота 28.70 высота над уровнем моря 154 м.

В архиве по умолчанию представлена погода в Каменке за последнюю неделю. Архивные данные за месяц целиком и за предыдущие месяцы, начиная с января 2011 года, Вы можете получить, выбрав интересующий диапазон дат из раскрывающегося списка и нажав кнопку "Ввод!".


*Определитесь, кто Вы:
робот инопланетянин человек

Внимание! Время в таблицах - всемирное. Для получения местного времени необходимо прибавить поправку, которая равна 2 ч.

Смотрите также архив погоды в соседних городах и на ближайших метеорологических станциях:

Погода в Сороках (Молдова) (35 км)
Погода в Рыбнице (Молдова) (37 км)
Погода в Бельцах (Молдова) (62 км)
Погода в Бравичах (Молдова) (76 км)
Погода в Могилев-Подольском (Винницкая область, Украина) (83 км)
Погода в Дубоссарах (Молдова) (86 км)
Погода в Фалештах (Молдова) (90 км)
Погода в Корнестах (Молдова) (91 км)
Погода в Гайвороне (Кировоградская область, Украина) (94 км)
Погода в Гайсине (Винницкая область, Украина) (100 км)

Пояснения к столбцам:

Ветер - указаны скорость ветра в м/с - средняя за 10 мин, порывы в срок и между сроками (в фигурных скобках) и направление, откуда дует ветер: С - северный, СВ - северо-восточный, В - восточный, ЮВ - юго-восточный, Ю - южный, ЮЗ - юго-западный, З - западный, СЗ - северо-западный.
Видимость - горизонтальная дальность видимости в метрах или километрах. При видимости от 1 до 10 км при отсутствии осадков обычно наблюдается дымка, при ухудшении видимости до 1 км и менее - туман. В сухую погоду видимость может ухудшаться дымом, пылью или мглою.
Явления - указаны атмосферные явления, наблюдавшиеся в срок или в последний час перед сроком; фигурными скобками обозначены явления, наблюдавшиеся между сроками (за 1-3 часа до срока); квадратными скобками обозначены град или гололедные отложения с указанием их диаметра в мм.
Облачность - указаны через наклонную черту общая и нижняя облачность в баллах и высота нижней границы облаков в метрах; квадратными скобками обозначены формы облаков: Ci - перистые, Cs - перисто-слоистые, Cc - перисто-кучевые, Ac - высококучевые, As - высокослоистые, Sc - слоисто-кучевые, Ns - слоисто-дождевые, Cu - кучевые, Cb - кучево-дождевые. Подробнее классификацию облаков см. в Атласе облаков (PDF).
T - Температура воздуха - температура, измеренная на высоте 2 м над землей.
Td - Температура точки росы - температура, при понижении до которой содержащийся в воздухе водяной пар достигнет насыщения.
f - Относительная влажность воздуха - влажноcть воздуха, измеренная на высоте 2 м над землей.
Te - Эффективная температура - температура, которую ощущает одетый по сезону человек в тени. Характеристика душности погоды. При расчете учитывается влияние влажности воздуха и скорости ветра на теплоощущения человека.
Tes - Эффективная температура на солнце - температура, которую ощущает человек, с поправкой на солнечный нагрев. Характеристика знойности погоды. Зависит от высоты солнца над горизонтом, облачности и скорости ветра. Ночью, в пасмурную погоду, а также при ветре 12 м/с и более поправка равна нулю.
P - Атмосферное давление - приведенное к уровню моря атмосферное давление.
Po - Атмосферное давление - измеренное на уровне метеостанции атмосферное давление.
Tmin - Минимальная температура - минимум температуры воздуха на высоте 2 м над землей.
Tmax - Максимальная температура - максимум температуры воздуха на высоте 2 м над землей.
R - Количество осадков - Количество выпавших осадков за период времени, мм. При наведении курсора мыши на число - период времени, за который выпало указанное количество осадков.
R24 - Количество осадков - Количество выпавших осадков за 24 часа, мм.
S - Снежный покров - Высота снежного покрова, см. При наведении курсора мыши на число - состояние снежного покрова и степень покрытия местности в баллах.